This is the latest recevied weather packets stored in our database for station/object K4ZZR. If no packets are shown the sender has not sent any weather packets the latest 10 day(s).
| Time | Temp. | Humidity | Pressure | Rain* | Wind** | Luminosity | Snow |
|---|---|---|---|---|---|---|---|
| 1778102766 | 28.33° C | 63% | 1015.5 hPa | 0 mm | - | 422 W/m² | - |
| 1778102461 | 28.33° C | 65% | 1015.7 hPa | 0 mm | - | 417 W/m² | - |
| 1778102157 | 28.33° C | 64% | 1015.7 hPa | 0 mm | - | 432 W/m² | - |
| 1778101854 | 28.33° C | 64% | 1015.7 hPa | 0 mm | - | 464 W/m² | - |
| 1778101551 | 28.33° C | 65% | 1015.9 hPa | 0 mm | - | 487 W/m² | - |
| 1778101247 | 28.89° C | 63% | 1015.6 hPa | 0 mm | - | 533 W/m² | - |
| 1778100944 | 28.33° C | 66% | 1015.7 hPa | 0 mm | - | 507 W/m² | - |
| 1778100639 | 28.89° C | 64% | 1015.7 hPa | 0 mm | - | 544 W/m² | - |
| 1778100338 | 28.89° C | 66% | 1015.7 hPa | 0 mm | - | 562 W/m² | - |
| 1778100034 | 28.33° C | 64% | 1015.6 hPa | 0 mm | - | 584 W/m² | - |
| 1778099733 | 28.33° C | 64% | 1015.7 hPa | 0 mm | - | 602 W/m² | - |
| 1778099429 | 28.33° C | 64% | 1015.7 hPa | 0 mm | - | 624 W/m² | - |
| 1778099126 | 28.89° C | 64% | 1015.7 hPa | 0 mm | - | 636 W/m² | - |
| 1778098822 | 28.89° C | 65% | 1015.8 hPa | 0 mm | - | 645 W/m² | - |
| 1778098521 | 28.33° C | 66% | 1015.9 hPa | 0 mm | - | 676 W/m² | - |
| 1778098217 | 29.44° C | 65% | 1015.8 hPa | 0 mm | - | 671 W/m² | - |
| 1778097913 | 29.44° C | 64% | 1016 hPa | 0 mm | - | 703 W/m² | - |
| 1778097610 | 28.89° C | 64% | 1016 hPa | 0 mm | - | 743 W/m² | - |
| 1778097307 | 28.33° C | 65% | 1015.8 hPa | 0 mm | - | 716 W/m² | - |
| 1778097003 | 28.33° C | 66% | 1015.6 hPa | 0 mm | - | 707 W/m² | - |
| 1778096700 | 28.89° C | 65% | 1015.7 hPa | 0 mm | - | 761 W/m² | - |
| 1778096397 | 28.89° C | 67% | 1015.7 hPa | 0 mm | - | 766 W/m² | - |
| 1778096095 | 28.89° C | 65% | 1015.9 hPa | 0 mm | - | 772 W/m² | - |
| 1778095791 | 28.89° C | 63% | 1016 hPa | 0 mm | - | 790 W/m² | - |
| 1778095488 | 28.89° C | 65% | 1016 hPa | 0 mm | - | 805 W/m² | - |
* Rain latest hour (hover to see other rain measurements)
** Current wind speed in m/s (hover to see current wind gust speed)